Atlantic, IA

12:08 PM CST on December 16, 2017 (GMT -0600)
Atlantic Municipal

Weather History for KAIO - January, 2013

Change the Weather History Date:

Monday, January 7, 2013

  Actual Average Record
Temperature  
Mean Temperature 31 °F -  
Max Temperature 41 °F 30 °F 62 °F (2003)
Min Temperature 21 °F 12 °F -9 °F (2015)
Degree Days  
Heating Degree Days 34    
Moisture  
Dew Point 25 °F    
Average Humidity 78    
Maximum Humidity 100    
Minimum Humidity 61    
Precipitation  
Precipitation 0.00 in - - ()
Sea Level Pressure  
Sea Level Pressure 30.03 in    
Wind  
Wind Speed 12 mph (SSW)    
Max Wind Speed 23 mph    
Max Gust Speed 30 mph    
Visibility 10 miles    
Events      
Averages and records for this station are not official NWS values.
T = Trace of Precipitation, MM = Missing Value Source: NWS Daily Summary

Daily Weather History Graph

Daily Weather History Graph

Search for Another Location

Airport or City:

Trip Planner

Search our weather history database for the weather conditions in past years. The results will help you decide how hot, cold, wet, or windy it might be!

Date:

Astronomy

Jan. 07, 2013 Rise Set
Actual Time 7:46 AM CST 5:07 PM CST
Civil Twilight 7:15 AM CST 5:38 PM CST
Nautical Twilight 6:40 AM CST 6:12 PM CST
Astronomical Twilight 6:07 AM CST 6:46 PM CST
Moon 3:10 AM CST (1/7) 1:19 PM CST (1/7)
Length of Visible Light 10h 22m
Length of Day
9h 21m
Waning Crescent, 22% of the Moon is Illuminated
Jan 7
Waning Crescent
Jan 11
New
Jan 18
First Quarter
Jan 26
Full
Feb 3
Last Quarter

Hourly Weather History & Observations

Time (CST) Temp. Windchill Dew Point Humidity Pressure Visibility Wind Dir Wind Speed Gust Speed Precip Events Conditions
12:15 AM 26.6 °F 16.2 °F 19.4 °F 74% 30.14 in 10.0 mi South 11.5 mph - N/A   Unknown
12:35 AM 26.6 °F 15.7 °F 19.4 °F 74% 30.14 in 10.0 mi South 12.7 mph - N/A   Unknown
12:55 AM 26.6 °F 15.2 °F 21.2 °F 80% 30.13 in 10.0 mi South 13.8 mph - N/A   Unknown
1:15 AM 28.4 °F 17.0 °F 21.2 °F 74% 30.13 in 10.0 mi South 15.0 mph - N/A   Unknown
1:35 AM 28.4 °F 17.0 °F 21.2 °F 74% 30.12 in 10.0 mi South 15.0 mph - N/A   Unknown
1:55 AM 28.4 °F 17.5 °F 21.2 °F 74% 30.12 in 10.0 mi South 13.8 mph - N/A   Unknown
2:15 AM 28.4 °F 17.0 °F 21.2 °F 74% 30.12 in 10.0 mi South 15.0 mph - N/A   Unknown
2:35 AM 28.4 °F 17.5 °F 21.2 °F 74% 30.12 in 10.0 mi SSW 13.8 mph - N/A   Unknown
2:55 AM 28.4 °F 17.5 °F 21.2 °F 74% 30.12 in 10.0 mi South 13.8 mph - N/A   Unknown
3:15 AM 28.4 °F 17.5 °F 21.2 °F 74% 30.11 in 10.0 mi South 13.8 mph - N/A   Unknown
3:35 AM 28.4 °F 17.0 °F 21.2 °F 74% 30.10 in 10.0 mi South 15.0 mph - N/A   Unknown
3:55 AM 28.4 °F 17.5 °F 21.2 °F 74% 30.10 in 10.0 mi South 13.8 mph - N/A   Unknown
4:15 AM 28.4 °F 17.0 °F 21.2 °F 74% 30.09 in 10.0 mi South 15.0 mph - N/A   Unknown
4:35 AM 28.4 °F - 21.2 °F 74% 30.08 in 10.0 mi North - - N/A   Unknown
4:55 AM 28.4 °F 16.6 °F 21.2 °F 74% 30.07 in 10.0 mi South 16.1 mph - N/A   Unknown
5:15 AM 30.2 °F 17.8 °F 21.2 °F 69% 30.05 in 10.0 mi South 19.6 mph - N/A   Unknown
5:35 AM 30.2 °F 18.1 °F 21.2 °F 69% 30.05 in 10.0 mi South 18.4 mph 25.3 mph N/A   Unknown
5:55 AM 30.2 °F 18.1 °F 21.2 °F 69% 30.04 in 10.0 mi South 18.4 mph 24.2 mph N/A   Unknown
6:15 AM 30.2 °F 18.5 °F 21.2 °F 69% 30.04 in 10.0 mi South 17.3 mph - N/A   Unknown
6:35 AM 30.2 °F 18.5 °F 21.2 °F 69% 30.04 in 10.0 mi South 17.3 mph - N/A   Unknown
6:55 AM 30.2 °F 17.4 °F 23.0 °F 75% 30.03 in 10.0 mi South 20.7 mph - N/A   Unknown
7:15 AM 32.0 °F 19.2 °F 23.0 °F 69% 30.02 in 10.0 mi South 23.0 mph - N/A   Unknown
7:35 AM 32.0 °F 19.5 °F 23.0 °F 69% 30.01 in 10.0 mi South 21.9 mph 29.9 mph N/A   Unknown
7:55 AM 32.0 °F 19.2 °F 23.0 °F 69% 30.00 in 10.0 mi South 23.0 mph 29.9 mph N/A   Unknown
8:15 AM 32.0 °F 19.5 °F 23.0 °F 69% 30.01 in 10.0 mi South 21.9 mph 27.6 mph N/A   Unknown
8:35 AM 33.8 °F 23.2 °F 23.0 °F 65% 30.03 in 10.0 mi SSW 17.3 mph - N/A   Unknown
8:55 AM 32.0 °F 20.5 °F 23.0 °F 69% 30.04 in 10.0 mi SSW 18.4 mph - N/A   Unknown
9:15 AM 32.0 °F 21.2 °F 24.8 °F 75% 30.04 in 10.0 mi SSW 16.1 mph - N/A   Unknown
9:35 AM 33.8 °F 23.2 °F 24.8 °F 70% 30.03 in 10.0 mi South 17.3 mph 23.0 mph N/A   Unknown
9:55 AM 33.8 °F 22.5 °F 24.8 °F 70% 30.04 in 10.0 mi SSW 19.6 mph - N/A   Unknown
10:15 AM 35.6 °F 25.2 °F 24.8 °F 65% 30.05 in 10.0 mi SSW 18.4 mph 25.3 mph N/A   Unknown
10:35 AM 35.6 °F 26.2 °F 26.6 °F 70% 30.05 in 10.0 mi SSW 15.0 mph - N/A   Unknown
10:55 AM 35.6 °F 26.2 °F 26.6 °F 70% 30.04 in - SSW 15.0 mph 21.9 mph N/A   Unknown
11:15 AM 35.6 °F 27.5 °F 26.6 °F 70% 30.03 in 10.0 mi SSW 11.5 mph 18.4 mph N/A   Unknown
11:35 AM 35.6 °F 27.5 °F 28.4 °F 75% 30.03 in 10.0 mi SSW 11.5 mph - N/A   Unknown
11:55 AM 35.6 °F 28.6 °F 28.4 °F 75% 30.02 in 10.0 mi SSW 9.2 mph - N/A   Unknown
12:15 PM 37.4 °F 30.3 °F 28.4 °F 70% 30.01 in 10.0 mi SSW 10.4 mph - N/A   Unknown
12:35 PM 39.2 °F 31.6 °F 28.4 °F 65% 29.99 in 10.0 mi SW 12.7 mph - N/A   Unknown
12:55 PM 39.2 °F 31.2 °F 28.4 °F 65% 29.99 in 10.0 mi SW 13.8 mph - N/A   Unknown
1:15 PM 39.2 °F 32.5 °F 28.4 °F 65% 29.99 in 10.0 mi SW 10.4 mph - N/A   Unknown
1:35 PM 39.2 °F 32.5 °F 30.2 °F 70% 29.98 in 10.0 mi SW 10.4 mph - N/A   Unknown
1:55 PM 41.0 °F 35.2 °F 28.4 °F 61% 29.98 in 10.0 mi WSW 9.2 mph - N/A   Unknown
2:15 PM 41.0 °F 33.1 °F 28.4 °F 61% 29.98 in 10.0 mi WSW 15.0 mph - N/A   Unknown
2:35 PM 39.2 °F 32.0 °F 30.2 °F 70% 29.99 in 10.0 mi WSW 11.5 mph - N/A   Unknown
2:55 PM 39.2 °F 33.6 °F 30.2 °F 70% 29.99 in 10.0 mi West 8.1 mph - N/A   Unknown
3:15 PM 39.2 °F 34.2 °F 30.2 °F 70% 30.00 in 10.0 mi West 6.9 mph - N/A   Unknown
3:35 PM 37.4 °F 30.8 °F 30.2 °F 75% 30.00 in 10.0 mi West 9.2 mph - N/A   Unknown
3:55 PM 37.4 °F 32.8 °F 30.2 °F 75% 29.99 in 10.0 mi WSW 5.8 mph - N/A   Unknown
4:15 PM 37.4 °F 32.8 °F 30.2 °F 75% 29.99 in 10.0 mi West 5.8 mph - N/A   Unknown
4:35 PM 35.6 °F 32.8 °F 30.2 °F 81% 29.99 in 10.0 mi West 3.5 mph - N/A   Unknown
5:15 PM 35.6 °F - 30.2 °F 81% 29.98 in 10.0 mi Calm Calm - N/A   Unknown
5:35 PM 33.8 °F - 30.2 °F 87% 29.98 in 10.0 mi Calm Calm - N/A   Unknown
5:55 PM 33.8 °F - 30.2 °F 87% 29.99 in 10.0 mi Calm Calm - N/A   Unknown
6:15 PM 32.0 °F - 30.2 °F 93% 30.00 in 10.0 mi Calm Calm - N/A   Unknown
6:35 PM 30.2 °F - 28.4 °F 93% 30.00 in 10.0 mi Calm Calm - N/A   Unknown
6:55 PM 30.2 °F - 28.4 °F 93% 30.01 in 10.0 mi Calm Calm - N/A   Unknown
7:15 PM 30.2 °F - 28.4 °F 93% 30.01 in 10.0 mi Calm Calm - N/A   Unknown
7:35 PM 28.4 °F - 28.4 °F 100% 30.00 in 10.0 mi Calm Calm - N/A   Unknown
7:55 PM 28.4 °F - 28.4 °F 100% 30.00 in 10.0 mi Calm Calm - N/A   Unknown
8:15 PM 26.6 °F - 26.6 °F 100% 30.00 in 10.0 mi Calm Calm - N/A   Unknown
8:35 PM 28.4 °F - 26.6 °F 93% 30.00 in 10.0 mi Calm Calm - N/A   Unknown
8:55 PM 26.6 °F 22.6 °F 26.6 °F 100% 30.00 in 10.0 mi North 3.5 mph - N/A   Unknown
9:35 PM 24.8 °F 20.5 °F 24.8 °F 100% 29.99 in 9.0 mi North 3.5 mph - N/A   Unknown
9:55 PM 24.8 °F 20.5 °F 24.8 °F 100% 29.99 in 9.0 mi NNE 3.5 mph - N/A   Unknown
10:15 PM 24.8 °F 20.5 °F 24.8 °F 100% 29.99 in 9.0 mi NNE 3.5 mph - N/A   Unknown
10:35 PM 26.6 °F - 26.6 °F 100% 29.98 in 9.0 mi Calm Calm - N/A   Unknown
10:55 PM 24.8 °F 20.5 °F 24.8 °F 100% 29.98 in 7.0 mi NNE 3.5 mph - N/A   Unknown
11:15 PM 24.8 °F 19.1 °F 24.8 °F 100% 29.97 in 7.0 mi NNE 4.6 mph - N/A   Unknown
11:35 PM 21.2 °F 16.4 °F 21.2 °F 100% 29.97 in 7.0 mi NNE 3.5 mph - N/A   Unknown
11:55 PM 21.2 °F - 21.2 °F 100% 29.96 in 8.0 mi Calm Calm - N/A   Unknown